This is the latest recevied weather packets stored in our database for station/object SALIDA. If no packets are shown the sender has not sent any weather packets the latest 10 day(s).
| Time | Temp. | Humidity | Pressure | Rain* | Wind** | Luminosity | Snow |
|---|---|---|---|---|---|---|---|
| 1777602696 | 3.33° C | 79% | 1014.1 hPa | 0 mm | - | - | - |
| 1777601796 | 3.33° C | 79% | 1013.6 hPa | 0 mm | - | - | - |
| 1777600896 | 3.33° C | 78% | 1013.3 hPa | 0 mm | - | - | - |
| 1777599996 | 3.33° C | 78% | 1013.1 hPa | 0 mm | - | - | - |
| 1777599096 | 3.33° C | 79% | 1012.8 hPa | 0 mm | - | - | - |
| 1777598196 | 3.33° C | 79% | 1012.6 hPa | 0 mm | - | - | - |
| 1777597296 | 3.89° C | 78% | 1012.4 hPa | 0 mm | - | - | - |
| 1777596396 | 3.89° C | 77% | 1012.1 hPa | 0 mm | - | - | - |
| 1777595496 | 4.44° C | 76% | 1011.8 hPa | 0 mm | - | - | - |
| 1777594596 | 5° C | 75% | 1011.7 hPa | 0 mm | - | - | - |
| 1777593696 | 5.56° C | 74% | 1011.4 hPa | 0 mm | - | - | - |
| 1777592796 | 5.56° C | 72% | 1011.1 hPa | 0 mm | - | - | - |
| 1777591896 | 5.56° C | 71% | 1010.9 hPa | 0 mm | - | - | - |
| 1777590996 | 5.56° C | 70% | 1010.6 hPa | 0 mm | - | - | - |
| 1777590096 | 5.56° C | 69% | 1010.5 hPa | 0 mm | - | - | - |
| 1777589196 | 6.11° C | 69% | 1010.4 hPa | 0 mm | - | - | - |
| 1777588296 | 6.11° C | 71% | 1010.3 hPa | 0 mm | - | - | - |
| 1777587396 | 6.11° C | 70% | 1010.2 hPa | 0 mm | - | - | - |
| 1777586496 | 6.11° C | 70% | 1010.2 hPa | 0 mm | - | - | - |
| 1777585596 | 5.56° C | 72% | 1010.4 hPa | 0 mm | - | - | - |
| 1777584696 | 5° C | 74% | 1010.3 hPa | 0 mm | - | - | - |
| 1777583796 | 5.56° C | 73% | 1010.1 hPa | 0 mm | - | - | - |
| 1777582896 | 6.67° C | 71% | 1010 hPa | 0 mm | - | - | - |
| 1777581996 | 6.67° C | 70% | 1009.9 hPa | 0 mm | - | - | - |
| 1777581096 | 6.67° C | 70% | 1009.9 hPa | 0 mm | - | - | - |
* Rain latest hour (hover to see other rain measurements)
** Current wind speed in m/s (hover to see current wind gust speed)